When you browse on this site, cookies collect data to enhance your experience and personalize the content and advertising you see.
Visit our Privacy Policy to learn more. By continuing to use the site, you agree to this use of cookies and data.
  • En España
  • Lista de países
  • Para 7 días
  • Temperatura del agua
  • Mapa Satelital
  • El tiempo en el mapa
  • Informadores
  • user-avatar
    Iniciar sesión

    Tiempo cada hora La Paz

    Hoy, 18 Enero, Viernes

    Tiempo Temperatura Precipitaciones Viento Presión Humedad
    00:00 +6°C° 0 mm 2 mps 474 mmHg 82%
    01:00 +6°C° 0 mm 2 mps 473 mmHg 83%
    02:00 +6°C° 0 mm 1 mps 473 mmHg 84%
    03:00 +6°C° 0 mm 1 mps 473 mmHg 85%
    04:00 +5°C° 0 mm 0 mps 473 mmHg 86%
    05:00 +7°C° 0 mm 1 mps 474 mmHg 82%
    06:00 +8°C° 0 mm 1 mps 474 mmHg 78%
    07:00 +8°C° 0 mm 1 mps 475 mmHg 74%
    08:00 +9°C° 0 mm 2 mps 476 mmHg 68%
    09:00 +10°C° 0 mm 3 mps 477 mmHg 62%
    10:00 +11°C° 0 mm 4 mps 478 mmHg 56%
    11:00 +12°C° 0.1 mm 4 mps 478 mmHg 54%
    12:00 +13°C° 0.1 mm 5 mps 478 mmHg 52%
    13:00 +14°C° 0.1 mm 5 mps 478 mmHg 49%
    14:00 +13°C° 0.1 mm 5 mps 477 mmHg 54%
    15:00 +12°C° 0.1 mm 5 mps 476 mmHg 58%
    16:00 +12°C° 0.1 mm 5 mps 476 mmHg 62%
    17:00 +10°C° 0 mm 4 mps 475 mmHg 67%
    18:00 +8°C° 0 mm 4 mps 475 mmHg 73%
    19:00 +8°C° 0 mm 3 mps 474 mmHg 78%
    20:00 +7°C° 0 mm 3 mps 475 mmHg 79%
    21:00 +7°C° 0 mm 3 mps 475 mmHg 79%
    22:00 +6°C° 0 mm 2 mps 475 mmHg 80%
    23:00 +6°C° 0.1 mm 2 mps 475 mmHg 78%

    Mañana, 19 Enero, Sábado

    Tiempo Temperatura Precipitaciones Viento Presión Humedad
    00:00 +6°C° 0.1 mm 2 mps 475 mmHg 77%
    01:00 +6°C° 0.1 mm 2 mps 474 mmHg 75%
    02:00 +7°C° 0.2 mm 1 mps 474 mmHg 77%
    03:00 +7°C° 0.2 mm 1 mps 474 mmHg 78%
    04:00 +7°C° 0.2 mm 1 mps 474 mmHg 79%
    05:00 +7°C° 0 mm 1 mps 475 mmHg 77%
    06:00 +8°C° 0 mm 1 mps 475 mmHg 75%
    07:00 +8°C° 0 mm 1 mps 476 mmHg 72%
    08:00 +10°C° 0 mm 1 mps 476 mmHg 67%
    09:00 +10°C° 0 mm 2 mps 477 mmHg 62%
    10:00 +12°C° 0 mm 2 mps 478 mmHg 57%
    11:00 +12°C° 0.2 mm 3 mps 478 mmHg 56%
    12:00 +12°C° 0.2 mm 3 mps 477 mmHg 56%
    13:00 +13°C° 0.2 mm 4 mps 477 mmHg 56%
    14:00 +12°C° 0.3 mm 4 mps 476 mmHg 58%
    15:00 +12°C° 0.3 mm 4 mps 476 mmHg 61%
    16:00 +12°C° 0.3 mm 4 mps 475 mmHg 64%
    17:00 +11°C° 0.2 mm 4 mps 475 mmHg 70%
    18:00 +10°C° 0.2 mm 4 mps 475 mmHg 77%
    19:00 +8°C° 0.2 mm 4 mps 475 mmHg 83%
    20:00 +8°C° 0 mm 3 mps 475 mmHg 84%
    21:00 +8°C° 0 mm 3 mps 475 mmHg 85%
    22:00 +8°C° 0 mm 3 mps 476 mmHg 86%
    23:00 +7°C° 0 mm 2 mps 475 mmHg 86%

    Pasado mañana, 20 Enero, Domingo

    Tiempo Temperatura Precipitaciones Viento Presión Humedad
    00:00 +7°C° 0 mm 2 mps 475 mmHg 87%
    01:00 +7°C° 0 mm 2 mps 474 mmHg 87%
    02:00 +7°C° 0 mm 1 mps 474 mmHg 87%
    03:00 +7°C° 0 mm 1 mps 474 mmHg 87%
    04:00 +7°C° 0 mm 1 mps 474 mmHg 86%
    05:00 +8°C° 0 mm 1 mps 475 mmHg 84%
    06:00 +8°C° 0 mm 1 mps 475 mmHg 81%
    07:00 +9°C° 0 mm 1 mps 476 mmHg 79%
    08:00 +10°C° 0.1 mm 1 mps 476 mmHg 73%
    09:00 +10°C° 0.1 mm 2 mps 477 mmHg 68%
    10:00 +12°C° 0.1 mm 2 mps 478 mmHg 62%
    11:00 +13°C° 0.2 mm 2 mps 477 mmHg 62%
    12:00 +12°C° 0.2 mm 3 mps 477 mmHg 61%
    13:00 +13°C° 0.2 mm 3 mps 476 mmHg 60%
    14:00 +13°C° 0.3 mm 3 mps 476 mmHg 62%
    15:00 +13°C° 0.3 mm 3 mps 476 mmHg 65%
    16:00 +12°C° 0.3 mm 4 mps 475 mmHg 67%
    17:00 +11°C° 0.1 mm 4 mps 475 mmHg 73%
    18:00 +10°C° 0.1 mm 4 mps 475 mmHg 78%
    19:00 +8°C° 0.1 mm 4 mps 475 mmHg 84%
    20:00 +8°C° 0 mm 4 mps 475 mmHg 85%
    21:00 +8°C° 0 mm 3 mps 475 mmHg 86%
    22:00 +8°C° 0 mm 3 mps 476 mmHg 87%
    23:00 +7°C° 0 mm 2 mps 475 mmHg 87%

    21 Enero, Lunes

    Tiempo Temperatura Precipitaciones Viento Presión Humedad
    00:00 +8°C° 0 mm 1 mps 474 mmHg 88%
    01:00 +7°C° 0 mm 1 mps 473 mmHg 89%
    02:00 +7°C° 0 mm 1 mps 473 mmHg 89%
    03:00 +7°C° 0 mm 1 mps 473 mmHg 89%
    04:00 +6°C° 0 mm 1 mps 472 mmHg 90%
    05:00 +7°C° 0 mm 1 mps 473 mmHg 85%
    06:00 +7°C° 0 mm 0 mps 474 mmHg 80%
    07:00 +8°C° 0 mm 0 mps 475 mmHg 76%
    08:00 +11°C° 0 mm 1 mps 476 mmHg 69%
    09:00 +12°C° 0 mm 2 mps 477 mmHg 63%
    10:00 +13°C° 0 mm 2 mps 478 mmHg 57%
    11:00 +13°C° 0.1 mm 3 mps 477 mmHg 58%
    12:00 +13°C° 0.1 mm 3 mps 477 mmHg 58%
    13:00 +13°C° 0.1 mm 4 mps 476 mmHg 59%
    14:00 +13°C° 0.2 mm 4 mps 476 mmHg 61%
    15:00 +12°C° 0.2 mm 4 mps 475 mmHg 63%
    16:00 +12°C° 0.2 mm 4 mps 475 mmHg 65%
    17:00 +11°C° 0.1 mm 4 mps 475 mmHg 71%
    18:00 +10°C° 0.1 mm 4 mps 475 mmHg 76%
    19:00 +8°C° 0.1 mm 4 mps 475 mmHg 82%
    20:00 +9°C° 0 mm 3 mps 475 mmHg 83%
    21:00 +8°C° 0 mm 3 mps 475 mmHg 84%
    22:00 +8°C° 0 mm 3 mps 475 mmHg 85%
    23:00 +7°C° 0 mm 3 mps 475 mmHg 85%

    22 Enero, Martes

    Tiempo Temperatura Precipitaciones Viento Presión Humedad
    00:00 +6°C° 0 mm 2 mps 474 mmHg 85%
    01:00 +6°C° 0 mm 2 mps 474 mmHg 84%
    02:00 +7°C° 0 mm 1 mps 474 mmHg 84%
    03:00 +7°C° 0 mm 1 mps 474 mmHg 84%
    04:00 +7°C° 0 mm 1 mps 473 mmHg 84%
    05:00 +7°C° 0.2 mm 1 mps 474 mmHg 82%
    06:00 +8°C° 0.2 mm 1 mps 475 mmHg 80%
    07:00 +9°C° 0.2 mm 1 mps 476 mmHg 77%
    08:00 +9°C° 0.2 mm 2 mps 476 mmHg 72%
    09:00 +10°C° 0.2 mm 2 mps 477 mmHg 67%
    10:00 +12°C° 0.2 mm 2 mps 477 mmHg 62%
    11:00 +12°C° 0.3 mm 3 mps 477 mmHg 62%
    12:00 +12°C° 0.3 mm 3 mps 477 mmHg 61%
    13:00 +13°C° 0.3 mm 4 mps 476 mmHg 60%
    14:00 +12°C° 0.3 mm 4 mps 476 mmHg 62%
    15:00 +12°C° 0.3 mm 4 mps 476 mmHg 64%
    16:00 +12°C° 0.3 mm 4 mps 475 mmHg 66%
    17:00 +11°C° 0.1 mm 4 mps 475 mmHg 71%
    18:00 +10°C° 0.1 mm 4 mps 475 mmHg 77%
    19:00 +9°C° 0.1 mm 3 mps 475 mmHg 82%
    20:00 +9°C° 0 mm 3 mps 475 mmHg 83%
    21:00 +8°C° 0 mm 3 mps 475 mmHg 84%
    22:00 +7°C° 0 mm 3 mps 475 mmHg 86%
    23:00 +7°C° 0.1 mm 2 mps 474 mmHg 85%

    23 Enero, Miércoles

    Tiempo Temperatura Precipitaciones Viento Presión Humedad
    00:00 +7°C° 0.1 mm 2 mps 474 mmHg 85%
    01:00 +7°C° 0.1 mm 1 mps 474 mmHg 84%
    02:00 +8°C° 0.4 mm 1 mps 474 mmHg 84%
    03:00 +8°C° 0.4 mm 1 mps 474 mmHg 84%
    04:00 +7°C° 0.4 mm 0 mps 474 mmHg 84%
    05:00 +7°C° 0.5 mm 0 mps 474 mmHg 83%
    06:00 +8°C° 0.5 mm 1 mps 475 mmHg 82%
    07:00 +9°C° 0.5 mm 1 mps 475 mmHg 80%
    08:00 +9°C° 0.3 mm 2 mps 476 mmHg 75%
    09:00 +10°C° 0.3 mm 2 mps 477 mmHg 70%
    10:00 +11°C° 0.3 mm 3 mps 477 mmHg 65%
    11:00 +12°C° 0.1 mm 3 mps 477 mmHg 62%
    12:00 +13°C° 0.1 mm 4 mps 477 mmHg 60%
    13:00 +13°C° 0.1 mm 4 mps 477 mmHg 57%
    14:00 +13°C° 0 mm 4 mps 476 mmHg 58%
    15:00 +13°C° 0 mm 4 mps 476 mmHg 59%
    16:00 +13°C° 0 mm 4 mps 475 mmHg 60%
    17:00 +12°C° 0 mm 4 mps 475 mmHg 66%
    18:00 +10°C° 0 mm 3 mps 475 mmHg 73%
    19:00 +9°C° 0 mm 3 mps 474 mmHg 79%
    20:00 +8°C° 0 mm 3 mps 474 mmHg 81%
    21:00 +8°C° 0 mm 2 mps 474 mmHg 82%
    22:00 +7°C° 0 mm 2 mps 474 mmHg 84%
    23:00 +7°C° 0 mm 2 mps 474 mmHg 83%
    Mostrar más